Regional Weather Roundup
Issued by NWS

Home | Current Version | Previous Version | Text Only | Print | Product List | Glossary On
Versions: 1 2 3 4 5 6 7 8 9 10 11 12 13 14 15 16 17 18 19 20 21 22 23 24 25 26 27 28 29 30 31 32 33 34 35 36 37 38 39 40 41 42 43 44 45 46 47 48 49 50
000
ASUS44 KMEG 182210
RWRTN
TENNESSEE HOURLY STATE WEATHER ROUNDUP
NATIONAL WEATHER SERVICE MEMPHIS TN
500 PM CDT THU SEP 18 2014

TNZ002-004-019-021-049-052-054-088>092-182300-
WEST TENNESSEE

CITY           SKY/WX    TMP DP  RH WIND       PRES   REMARKS
MEMPHIS INTL   PTSUNNY   81  68  64 NE8       29.92S
NWS MEMPHIS      N/A     77 N/A N/A MISG        N/A
JACKSON        PTSUNNY   74  63  68 E8        29.95S
DYERSBURG      PTSUNNY   72  57  60 E6        29.97S
UNION CITY     SUNNY     73  59  60 E5        29.96S
PARIS          SUNNY     72  57  60 NE9       29.98S
HUNTINGDON     PTSUNNY   71  59  66 NE7       29.97S
LEXINGTON      CLOUDY    72  63  73 CALM      29.95S
SAVANNAH       PTSUNNY   73  70  88 NE5       29.95R
$$

TNZ008-025-027-028-033-062-065-066-182300-
NORTH MIDDLE TENNESSEE

CITY           SKY/WX    TMP DP  RH WIND       PRES   REMARKS
NASHVILLE      CLOUDY    75  54  47 E6        29.98F
DICKSON        CLOUDY    72  57  60 E3        29.98F
PORTLAND       SUNNY     73  59  60 NE3       29.98F
CLARKSVILLE    PTSUNNY   76  55  48 E7        29.97F
LEBANON        CLOUDY    74  58  57 NE6       29.97S
SMYRNA         CLOUDY    75  57  53 N5        29.98F
MURFREESBORO   CLOUDY    75  57  53 NE7       29.97S
COOKEVILLE     SUNNY     73  61  64 CALM      29.99S
LIVINGSTON     PTSUNNY   70  59  68 N6        30.01F
GALLATIN       CLOUDY    75  61  62 N6        29.99S
CROSSVILLE     PTSUNNY   73  56  54 NE5       30.02S
$$

TNZ061-075-076-078-094-096-097-182300-
SOUTH MIDDLE TENNESSEE

CITY           SKY/WX    TMP DP  RH WIND       PRES   REMARKS
LEWISBURG      CLOUDY    77  59  53 NE5       29.95F
FAYETTEVILLE   SUNNY     75  57  53 NE5       29.94F
TULLAHOMA      MOSUNNY   75  54  46 NE5       29.98S
WINCHESTER     MOSUNNY   79  57  47 CALM      29.96F
MCMINNVILLE    SUNNY     75  61  60 N6        29.99S
COLUMBIA       SUNNY     77  61  57 VRB5      29.95R
SHELBYVILLE    MOSUNNY   77  61  57 NE7       29.97S
$$

TNZ017-018-042-046-047-182300-
NORTHEAST TENNESSEE

CITY           SKY/WX    TMP DP  RH WIND       PRES   REMARKS
TRI CITIES     CLOUDY    72  54  53 N6        30.01S
ELIZABETHTON   PTCLDY    72  55  56 CALM      30.01S
$$

TNZ012-013-036-069-073-074-182300-
CENTRAL EAST TENNESSEE

CITY           SKY/WX    TMP DP  RH WIND       PRES   REMARKS
KNOXVILLE      CLOUDY    77  55  46 NE10      29.97S
OAK RIDGE      PTSUNNY   76  57  51 CALM      30.00S
GATLINBURG     CLEAR     75  57  53 NE6       29.98S
MORRISTOWN     CLEAR     72  55  56 N3        30.01S
$$

TNZ083-085-099-182300-
SOUTHEAST TENNESSEE

CITY           SKY/WX    TMP DP  RH WIND       PRES   REMARKS
CHATTANOOGA    PTSUNNY   81  54  39 N8        29.96S
$$

SKY/WX REPORTED AS FAIR MEANS FEW OR NO CLOUDS BELOW
12 THOUSAND FEET.




USA.gov is the U.S. government's official web portal to all federal, state and local government web resources and services.